GW5952 Weather Reports


Display with metric or nautical units.
time (UTC)temp
F
wind
direction
speed
MPH
gust
MPH
rain 1hr
in
rain 24hr
in
rain mn
in
humidity
%
barometer
mb
20260905195746 100 9 3.0 4.0 0.00 0.00 0.00 40 1011.1
20260905195242 100 333 0.0 0.0 0.00 0.00 0.00 41 1011.2
20260905194737 100 337 0.0 0.0 0.00 0.00 0.00 41 1011.0
20260905194236 101 265 0.0 1.0 0.00 0.00 0.00 40 1011.2
20260905193736 100 326 2.0 2.0 0.00 0.00 0.00 40 1011.4
20260905193232 99 230 1.0 1.0 0.00 0.00 0.00 43 1011.5
20260905192727 98 325 2.0 2.0 0.00 0.00 0.00 44 1011.6
20260905192223 99 307 3.0 4.0 0.00 0.00 0.00 43 1011.7
20260905191722 100 294 0.0 1.0 0.00 0.00 0.00 42 1011.8
20260905191220 100 245 0.0 0.0 0.00 0.00 0.00 44 1011.7
20260905190719 100 236 1.0 1.0 0.00 0.00 0.00 45 1011.9
20260905190218 99 305 2.0 2.0 0.00 0.00 0.00 43 1011.7
20260905185718 99 321 3.0 3.0 0.00 0.00 0.00 44 1011.9
20260905185212 99 308 2.0 2.0 0.00 0.00 0.00 44 1012.0
20260905184707 98 48 1.0 2.0 0.00 0.00 0.00 47 1012.3
20260905184206 100 250 2.0 2.0 0.00 0.00 0.00 46 1012.1
20260905183706 101 234 1.0 1.0 0.00 0.00 0.00 44 1012.2
20260905183201 100 269 1.0 1.0 0.00 0.00 0.00 45 1012.2
20260905182700 100 216 0.0 0.0 0.00 0.00 0.00 45 1012.3
20260905182200 100 287 2.0 2.0 0.00 0.00 0.00 45 1012.4
20260905181656 100 201 1.0 1.0 0.00 0.00 0.00 44 1012.4
20260905181154 99 282 1.0 1.0 0.00 0.00 0.00 46 1012.4
20260905180649 98 240 1.0 1.0 0.00 0.00 0.00 47 1012.6
20260905180145 99 210 1.0 2.0 0.00 0.00 0.00 47 1012.8
20260905175643 99 237 0.0 0.0 0.00 0.00 0.00 47 1012.9
20260905175139 98 281 1.0 2.0 0.00 0.00 0.00 48 1012.9
20260905174635 98 257 1.0 2.0 0.00 0.00 0.00 48 1012.7
20260905174130 99 226 1.0 1.0 0.00 0.00 0.00 50 1012.8
20260905173626 98 242 0.0 1.0 0.00 0.00 0.00 47 1013.0
20260905173122 98 350 2.0 2.0 0.00 0.00 0.00 49 1012.9
20260905172620 98 273 1.0 2.0 0.00 0.00 0.00 49 1013.1
20260905172115 98 193 1.0 2.0 0.00 0.00 0.00 51 1013.3
20260905171612 97 187 1.0 2.0 0.00 0.00 0.00 50 1013.2
20260905171108 98 356 1.0 2.0 0.00 0.00 0.00 50 1013.1
20260905170604 98 132 1.0 1.0 0.00 0.00 0.00 49 1013.3
20260905170059 97 202 0.0 1.0 0.00 0.00 0.00 52 1013.3
20260905165554 97 355 0.0 0.0 0.00 0.00 0.00 51 1013.5
20260905165049 97 297 2.0 3.0 0.00 0.00 0.00 52 1013.4
20260905164544 97 216 1.0 1.0 0.00 0.00 0.00 53 1013.4
20260905164038 97 211 0.0 0.0 0.00 0.00 0.00 52 1013.7
20260905163534 97 203 1.0 1.0 0.00 0.00 0.00 52 1013.7
20260905163030 96 190 0.0 0.0 0.00 0.00 0.00 53 1013.9
20260905162526 96 240 1.0 2.0 0.00 0.00 0.00 54 1014.1
20260905162021 96 319 2.0 2.0 0.00 0.00 0.00 55 1014.2
20260905161520 96 338 2.0 2.0 0.00 0.00 0.00 53 1014.0
20260905161018 96 322 3.0 4.0 0.00 0.00 0.00 53 1014.3
20260905160517 96 321 0.0 2.0 0.00 0.00 0.00 55 1014.2
20260905160012 96 224 1.0 1.0 0.00 0.00 0.00 56 1014.1
20260905155511 95 227 0.0 1.0 0.00 0.00 0.00 56 1014.1
20260905155009 95 230 0.0 0.0 0.00 0.00 0.00 57 1013.9
20260905154505 95 321 0.0 0.0 0.00 0.00 0.00 56 1014.0
20260905154000 95 249 0.0 0.0 0.00 0.00 0.00 57 1014.1
20260905153457 95 157 0.0 0.0 0.00 0.00 0.00 59 1014.1
20260905152956 94 230 0.0 0.0 0.00 0.00 0.00 57 1014.1
20260905152456 93 231 0.0 0.0 0.00 0.00 0.00 59 1014.2
20260905151957 94 194 0.0 0.0 0.00 0.00 0.00 62 1014.1
20260905151452 94 202 0.0 0.0 0.00 0.00 0.00 59 1014.2
20260905150947 94 183 0.0 0.0 0.00 0.00 0.00 59 1014.1
20260905150442 93 182 1.0 1.0 0.00 0.00 0.00 59 1014.1
20260905145938 93 182 1.0 1.0 0.00 0.00 0.00 60 1014.1
20260905145433 93 185 1.0 1.0 0.00 0.00 0.00 63 1014.2
20260905144932 92 189 1.0 1.0 0.00 0.00 0.00 62 1014.2
20260905144429 91 168 1.0 2.0 0.00 0.00 0.00 63 1014.1
20260905143927 90 159 0.0 1.0 0.00 0.00 0.00 65 1014.0
20260905143427 90 188 2.0 2.0 0.00 0.00 0.00 68 1014.2
20260905142926 90 182 0.0 1.0 0.00 0.00 0.00 67 1014.3
20260905142425 90 165 0.0 1.0 0.00 0.00 0.00 64 1014.1
20260905141921 90 183 1.0 1.0 0.00 0.00 0.00 67 1014.1
20260905141416 89 179 0.0 0.0 0.00 0.00 0.00 69 1014.4
20260905140912 89 169 1.0 1.0 0.00 0.00 0.00 69 1014.3
20260905140407 89 165 0.0 1.0 0.00 0.00 0.00 69 1014.5
20260905135906 90 173 1.0 1.0 0.00 0.00 0.00 66 1014.4
20260905135402 90 83 0.0 1.0 0.00 0.00 0.00 65 1014.4
20260905134857 88 83 0.0 1.0 0.00 0.00 0.00 66 1014.4
20260905134355 87 123 0.0 0.0 0.00 0.00 0.00 68 1014.3
20260905133850 87 171 0.0 0.0 0.00 0.00 0.00 69 1014.3
20260905133346 87 170 0.0 0.0 0.00 0.00 0.00 70 1014.3
20260905132845 86 170 0.0 1.0 0.00 0.00 0.00 70 1014.4
20260905132340 85 170 0.0 0.0 0.00 0.00 0.00 73 1014.4
20260905131835 84 170 0.0 1.0 0.00 0.00 0.00 78 1014.4
20260905131330 83 170 0.0 0.0 0.00 0.00 0.00 79 1014.5
20260905130826 83 170 0.0 0.0 0.00 0.00 0.00 81 1014.5
20260905130324 83 170 0.0 1.0 0.00 0.00 0.00 82 1014.5
20260905125820 82 238 1.0 1.0 0.00 0.00 0.00 82 1014.5
20260905125315 82 170 0.0 0.0 0.00 0.00 0.00 84 1014.4
20260905124811 81 232 0.0 0.0 0.00 0.00 0.00 84 1014.5
20260905124307 81 232 1.0 1.0 0.00 0.00 0.00 85 1014.4
20260905123801 80 175 1.0 1.0 0.00 0.00 0.00 86 1014.4
20260905123259 80 175 1.0 1.0 0.00 0.00 0.00 86 1014.4
20260905122758 79 170 1.0 1.0 0.00 0.00 0.00 86 1014.4
20260905122257 78 185 0.0 1.0 0.00 0.00 0.00 89 1014.3
20260905121753 77 186 0.0 0.0 0.00 0.00 0.00 91 1014.4
20260905121250 77 186 0.0 0.0 0.00 0.00 0.00 92 1014.3
20260905120748 77 186 0.0 0.0 0.00 0.00 0.00 93 1014.2
20260905120247 76 186 0.0 0.0 0.00 0.00 0.00 93 1014.4
20260905115743 76 186 0.0 0.0 0.00 0.00 0.00 94 1014.1
20260905115242 76 186 0.0 0.0 0.00 0.00 0.00 94 1014.2
20260905114742 76 186 0.0 0.0 0.00 0.00 0.00 94 1014.2
20260905114241 76 186 0.0 0.0 0.00 0.00 0.00 94 1014.1
20260905113740 76 186 0.0 0.0 0.00 0.00 0.00 94 1013.8
20260905113236 76 186 0.0 0.0 0.00 0.00 0.00 94 1013.9
20260905112731 76 186 0.0 0.0 0.00 0.00 0.00 94 1013.6
20260905112226 76 186 0.0 0.0 0.00 0.00 0.00 94 1013.9
20260905111721 76 186 0.0 0.0 0.00 0.00 0.00 94 1013.7
20260905111221 76 186 0.0 0.0 0.00 0.00 0.00 94 1013.6
20260905110720 76 186 0.0 0.0 0.00 0.00 0.00 94 1013.6
20260905110214 76 186 0.0 0.0 0.00 0.00 0.00 93 1013.5
20260905105710 76 186 0.0 0.0 0.00 0.00 0.00 93 1013.5
20260905105208 76 186 0.0 0.0 0.00 0.00 0.00 93 1013.6
20260905104704 76 186 0.0 0.0 0.00 0.00 0.00 93 1013.5
20260905104200 77 186 0.0 0.0 0.00 0.00 0.00 93 1013.4
20260905103655 77 186 0.0 0.0 0.00 0.00 0.00 93 1013.4
20260905103150 77 186 0.0 0.0 0.00 0.00 0.00 93 1013.4
20260905102646 77 186 0.0 0.0 0.00 0.00 0.00 92 1013.4
20260905102143 77 186 0.0 0.0 0.00 0.00 0.00 92 1013.4
20260905101641 77 186 0.0 0.0 0.00 0.00 0.00 92 1013.3
20260905101139 77 186 0.0 0.0 0.00 0.00 0.00 92 1013.4
20260905100636 77 186 0.0 0.0 0.00 0.00 0.00 91 1013.4
20260905100131 77 186 0.0 0.0 0.00 0.00 0.00 91 1013.4
20260905095630 77 186 0.0 0.0 0.00 0.00 0.00 91 1013.5
20260905095126 77 186 0.0 0.0 0.00 0.00 0.00 90 1013.2
20260905094621 78 186 0.0 0.0 0.00 0.00 0.00 90 1013.2
20260905094120 78 186 0.0 0.0 0.00 0.00 0.00 90 1013.1
20260905093620 78 186 1.0 1.0 0.00 0.00 0.00 89 1013.1
20260905093117 78 186 0.0 0.0 0.00 0.00 0.00 90 1013.0
20260905092616 78 186 0.0 0.0 0.00 0.00 0.00 90 1013.0
20260905092112 78 186 0.0 0.0 0.00 0.00 0.00 90 1013.0
20260905091611 78 186 0.0 0.0 0.00 0.00 0.00 90 1013.0
20260905091106 78 186 0.0 0.0 0.00 0.00 0.00 90 1013.0
20260905090606 78 186 0.0 0.0 0.00 0.00 0.00 89 1012.9
20260905085600 78 186 0.0 0.0 0.00 0.00 0.00 88 1012.8
20260905085056 78 186 0.0 0.0 0.00 0.00 0.00 88 1012.8
20260905084555 78 186 0.0 0.0 0.00 0.00 0.00 89 1012.9
20260905084051 78 186 0.0 0.0 0.00 0.00 0.00 89 1012.9
20260905083551 78 186 0.0 0.0 0.00 0.00 0.00 89 1012.7
20260905083048 78 186 0.0 0.0 0.00 0.00 0.00 89 1012.7
20260905082542 78 186 0.0 0.0 0.00 0.00 0.00 88 1013.1
20260905082039 78 186 0.0 0.0 0.00 0.00 0.00 88 1013.0
20260905081538 78 186 0.0 0.0 0.00 0.00 0.00 88 1013.0
20260905081033 78 186 0.0 0.0 0.00 0.00 0.00 88 1013.2
20260905080532 79 186 0.0 0.0 0.00 0.00 0.00 88 1013.3
20260905080027 79 186 0.0 0.0 0.00 0.00 0.00 87 1013.2
20260905075520 79 186 0.0 0.0 0.00 0.00 0.00 87 1013.2
20260905075020 79 186 0.0 0.0 0.00 0.00 0.00 86 1013.2
20260905074515 80 186 0.0 0.0 0.00 0.00 0.00 86 1013.3
20260905074011 80 186 0.0 0.0 0.00 0.00 0.00 85 1013.3
20260905073506 79 186 0.0 0.0 0.00 0.00 0.00 86 1013.2
20260905073002 79 186 0.0 0.0 0.00 0.00 0.00 86 1013.3
20260905072501 80 186 0.0 0.0 0.00 0.00 0.00 85 1013.2
20260905071957 80 186 0.0 0.0 0.00 0.00 0.00 85 1013.3
20260905071454 80 186 0.0 0.0 0.00 0.00 0.00 84 1013.4
20260905070954 80 186 0.0 0.0 0.00 0.00 0.00 85 1013.4
20260905070450 80 186 0.0 0.0 0.00 0.00 0.00 84 1013.4
20260905065949 80 186 0.0 0.0 0.00 0.00 0.00 83 1013.4
20260905065448 80 186 0.0 0.0 0.00 0.00 0.00 84 1013.5
20260905064943 80 186 0.0 0.0 0.00 0.00 0.00 84 1013.2
20260905064443 80 186 0.0 0.0 0.00 0.00 0.00 84 1013.4
20260905063938 80 186 0.0 0.0 0.00 0.00 0.00 84 1013.5
20260905063433 80 186 0.0 0.0 0.00 0.00 0.00 84 1013.6
20260905062930 80 186 0.0 0.0 0.00 0.00 0.00 84 1013.4
20260905062429 81 186 0.0 0.0 0.00 0.00 0.00 83 1013.5
20260905061925 81 186 0.0 0.0 0.00 0.00 0.00 82 1013.6
20260905061424 81 186 0.0 0.0 0.00 0.00 0.00 82 1013.8
20260905060924 81 186 0.0 0.0 0.00 0.00 0.00 82 1013.7
20260905060420 81 186 0.0 0.0 0.00 0.00 0.00 82 1013.5
20260905055919 82 186 0.0 0.0 0.00 0.00 0.00 81 1013.4
20260905055415 82 186 0.0 0.0 0.00 0.00 0.00 80 1013.5
20260905054914 82 186 0.0 0.0 0.00 0.00 0.00 81 1013.6
20260905054410 82 186 0.0 0.0 0.00 0.00 0.00 81 1013.7
20260905053910 82 186 0.0 1.0 0.00 0.00 0.00 81 1013.8
20260905053405 82 186 0.0 0.0 0.00 0.00 0.00 82 1013.9
20260905052900 82 186 0.0 0.0 0.00 0.00 0.00 82 1013.8
20260905052400 82 186 0.0 0.0 0.00 0.00 0.00 82 1013.9
20260905051859 82 186 0.0 0.0 0.00 0.00 0.00 82 1013.8
20260905051355 82 186 0.0 0.0 0.00 0.00 0.00 82 1013.8
20260905050853 82 186 0.0 0.0 0.00 0.00 0.00 82 1013.9
20260905050348 82 186 0.0 0.0 0.00 0.00 0.00 82 1013.8
20260905045848 82 186 0.0 0.0 0.00 0.00 0.00 82 1013.6
20260905045343 82 186 0.0 0.0 0.00 0.00 0.00 81 1013.8
20260905044839 82 186 0.0 0.0 0.00 0.00 0.00 80 1013.7
20260905044334 82 186 0.0 0.0 0.00 0.00 0.00 80 1013.7
20260905043832 83 186 0.0 1.0 0.00 0.00 0.00 79 1013.7
20260905043327 83 186 0.0 0.0 0.00 0.00 0.00 77 1013.5
20260905042823 83 186 0.0 0.0 0.00 0.00 0.00 77 1013.5
20260905042322 83 186 0.0 0.0 0.00 0.00 0.00 78 1013.7
20260905041817 83 186 0.0 0.0 0.00 0.00 0.00 78 1013.6
20260905041314 83 186 0.0 0.0 0.00 0.00 0.00 79 1013.7
20260905040808 83 186 0.0 0.0 0.00 0.00 0.00 78 1013.6
20260905040307 84 186 0.0 0.0 0.00 0.00 0.00 77 1013.6
20260905035801 84 186 0.0 0.0 0.00 0.00 0.00 76 1013.9
20260905035257 84 186 0.0 0.0 0.00 0.00 0.00 76 1013.8
20260905034754 84 186 0.0 1.0 0.00 0.00 0.00 76 1013.8
20260905034254 84 187 0.0 0.0 0.00 0.00 0.00 75 1013.7
20260905033752 84 187 0.0 1.0 0.00 0.00 0.00 76 1013.8
20260905033248 85 187 0.0 0.0 0.00 0.00 0.00 76 1013.9
20260905032748 85 187 0.0 0.0 0.00 0.00 0.00 75 1013.5
20260905032243 85 187 0.0 0.0 0.00 0.00 0.00 74 1013.9
20260905031738 85 187 0.0 0.0 0.00 0.00 0.00 74 1013.8
20260905031234 85 187 0.0 0.0 0.00 0.00 0.00 74 1013.8
20260905030729 86 187 0.0 1.0 0.00 0.00 0.00 73 1014.0
20260905030224 86 187 0.0 0.0 0.00 0.00 0.00 73 1013.9
20260905025719 86 187 0.0 0.0 0.00 0.00 0.00 73 1013.8
20260905025214 87 185 0.0 0.0 0.00 0.00 0.00 71 1013.9
20260905024710 87 178 0.0 1.0 0.00 0.00 0.00 72 1013.8
20260905024206 87 178 0.0 0.0 0.00 0.00 0.00 71 1014.0
20260905023701 86 178 0.0 0.0 0.00 0.00 0.00 72 1013.6
20260905023200 87 178 0.0 0.0 0.00 0.00 0.00 72 1013.8
20260905022659 87 179 0.0 0.0 0.00 0.00 0.00 71 1013.8
20260905022155 87 179 0.0 0.0 0.00 0.00 0.00 69 1013.6
20260905021655 87 179 0.0 0.0 0.00 0.00 0.00 69 1013.8
20260905021150 88 179 0.0 1.0 0.00 0.00 0.00 68 1013.6
20260905020645 88 175 0.0 0.0 0.00 0.00 0.00 68 1013.7
20260905020140 88 175 0.0 0.0 0.00 0.00 0.00 68 1013.5
20260905015638 88 175 0.0 0.0 0.00 0.00 0.00 67 1013.4
20260905015133 88 175 0.0 0.0 0.00 0.00 0.00 67 1013.6
20260905014626 89 174 0.0 0.0 0.00 0.00 0.00 66 1013.4
20260905014122 89 182 0.0 1.0 0.00 0.00 0.00 66 1013.5
20260905013619 89 182 0.0 0.0 0.00 0.00 0.00 66 1013.3
20260905013115 89 191 2.0 3.0 0.00 0.00 0.00 66 1013.2
20260905012614 89 176 1.0 1.0 0.00 0.00 0.00 65 1013.2
20260905012111 89 176 1.0 1.0 0.00 0.00 0.00 65 1013.2
20260905011607 89 191 0.0 0.0 0.00 0.00 0.00 65 1013.2
20260905011103 88 174 0.0 1.0 0.00 0.00 0.00 66 1013.2
20260905010602 88 197 0.0 0.0 0.00 0.00 0.00 65 1013.1
20260905010059 88 197 0.0 0.0 0.00 0.00 0.00 66 1013.1
20260905005554 88 174 0.0 1.0 0.00 0.00 0.00 65 1013.1
20260905005050 88 174 0.0 0.0 0.00 0.00 0.00 65 1012.9
20260905004549 88 174 0.0 0.0 0.00 0.00 0.00 65 1013.1
20260905004045 88 174 0.0 0.0 0.00 0.00 0.00 65 1013.0
20260905003541 89 174 0.0 0.0 0.00 0.00 0.00 66 1013.0
20260905003036 89 174 0.0 0.0 0.00 0.00 0.00 64 1013.0
20260905002531 89 174 0.0 0.0 0.00 0.00 0.00 64 1013.1
20260905002026 89 174 0.0 0.0 0.00 0.00 0.00 64 1012.9
20260905001521 89 174 0.0 0.0 0.00 0.00 0.00 64 1013.1
20260905001020 90 174 0.0 0.0 0.00 0.00 0.00 64 1013.0
20260905000516 90 174 0.0 0.0 0.00 0.00 0.00 63 1012.9
20260905000012 90 174 0.0 0.0 0.00 0.00 0.00 62 1013.0
20260904235507 91 174 0.0 0.0 0.00 0.00 0.00 63 1013.0
20260904235006 91 174 0.0 0.0 0.00 0.00 0.00 62 1013.0
20260904234506 92 174 0.0 0.0 0.00 0.00 0.00 60 1012.9
20260904234002 92 174 0.0 0.0 0.00 0.00 0.00 58 1013.0
20260904233457 93 174 0.0 0.0 0.00 0.00 0.00 58 1012.8
20260904232953 93 174 0.0 0.0 0.00 0.00 0.00 57 1012.9
20260904232450 93 174 0.0 0.0 0.00 0.00 0.00 58 1012.8
20260904231946 94 159 0.0 0.0 0.00 0.00 0.00 55 1012.6
20260904231441 94 159 0.0 0.0 0.00 0.00 0.00 54 1012.6
20260904230936 95 159 0.0 0.0 0.00 0.00 0.00 54 1012.6
20260904230435 95 159 0.0 0.0 0.00 0.00 0.00 51 1012.5
20260904225931 96 159 0.0 0.0 0.00 0.00 0.00 51 1012.7
20260904225429 96 159 0.0 0.0 0.00 0.00 0.00 51 1012.5
20260904224928 96 159 0.0 0.0 0.00 0.00 0.00 53 1012.6
20260904224425 96 159 0.0 0.0 0.00 0.00 0.00 50 1012.6
20260904223924 97 159 0.0 0.0 0.00 0.00 0.00 49 1012.5
20260904223423 97 159 0.0 0.0 0.00 0.00 0.00 49 1012.5
20260904222919 98 158 0.0 0.0 0.00 0.00 0.00 45 1012.6
20260904222414 98 146 0.0 1.0 0.00 0.00 0.00 46 1012.4
20260904221914 98 199 0.0 0.0 0.00 0.00 0.00 46 1012.5
20260904221409 98 191 2.0 2.0 0.00 0.00 0.00 45 1012.6
20260904220904 98 189 0.0 0.0 0.00 0.00 0.00 45 1012.7
20260904220403 98 247 0.0 0.0 0.00 0.00 0.00 46 1012.7
20260904215859 98 84 0.0 0.0 0.00 0.00 0.00 45 1012.7
20260904215354 97 281 0.0 0.0 0.00 0.00 0.00 46 1012.6
20260904214850 97 281 0.0 0.0 0.00 0.00 0.00 46 1012.6
20260904214345 97 282 0.0 0.0 0.00 0.00 0.00 48 1012.7
20260904213844 96 179 0.0 0.0 0.00 0.00 0.00 49 1012.9
20260904213339 96 170 0.0 0.0 0.00 0.00 0.00 55 1012.7
20260904212835 96 170 0.0 0.0 0.00 0.00 0.00 53 1013.0
20260904212335 97 170 0.0 0.0 0.00 0.00 0.00 49 1013.0
20260904211830 97 170 0.0 0.0 0.00 0.00 0.00 48 1013.0
20260904211325 98 299 0.0 0.0 0.00 0.00 0.00 50 1013.2
20260904210820 97 297 0.0 1.0 0.00 0.00 0.00 47 1013.3
20260904210320 98 174 0.0 0.0 0.00 0.00 0.00 48 1013.1
20260904205816 98 290 1.0 1.0 0.00 0.00 0.00 47 1013.6
20260904205311 97 283 1.0 1.0 0.00 0.00 0.00 46 1013.6
20260904204809 98 7 0.0 0.0 0.00 0.00 0.00 48 1013.4
20260904204304 98 289 0.0 0.0 0.00 0.00 0.00 46 1013.5
20260904203800 98 214 0.0 1.0 0.00 0.00 0.00 46 1013.5
20260904203256 99 13 1.0 2.0 0.00 0.00 0.00 45 1013.5
20260904202752 99 227 0.0 1.0 0.00 0.00 0.00 46 1013.7
20260904202248 98 191 0.0 1.0 0.00 0.00 0.00 47 1013.5
20260904201743 99 352 2.0 2.0 0.00 0.00 0.00 45 1014.0
20260904201243 99 163 1.0 1.0 0.00 0.00 0.00 45 1013.8
20260904200738 99 174 1.0 1.0 0.00 0.00 0.00 44 1014.1
20260904200232 99 15 2.0 2.0 0.00 0.00 0.00 45 1014.0